TimeCST,TemperatureF,Dew PointF,Humidity,Sea Level PressureIn,VisibilityMPH,Wind Direction,Wind SpeedMPH,Gust SpeedMPH,PrecipitationIn,Events,Conditions,WindDirDegrees,DateUTC
12:22 AM,39.2,37.4,93,29.79,3.0,WNW,10.4,-,N/A,,Overcast,300,2012-12-19 06:22:00
12:53 AM,39.9,36.0,86,29.83,5.0,NW,6.9,-,N/A,,Overcast,310,2012-12-19 06:53:00
1:01 AM,39.2,35.6,87,29.82,6.0,NW,9.2,-,N/A,,Overcast,320,2012-12-19 07:01:00
1:53 AM,39.0,34.0,82,29.86,8.0,NW,6.9,-,N/A,,Overcast,320,2012-12-19 07:53:00
2:04 AM,37.4,33.8,87,29.86,8.0,NW,12.7,18.4,N/A,,Overcast,310,2012-12-19 08:04:00
2:53 AM,37.9,34.0,86,29.90,10.0,NW,9.2,-,N/A,,Overcast,310,2012-12-19 08:53:00
3:53 AM,37.0,34.0,89,29.92,8.0,West,6.9,-,N/A,,Overcast,280,2012-12-19 09:53:00
4:53 AM,36.0,33.1,89,29.96,9.0,West,8.1,-,N/A,,Overcast,260,2012-12-19 10:53:00
5:53 AM,36.0,32.0,86,29.99,9.0,WSW,8.1,-,N/A,,Overcast,250,2012-12-19 11:53:00
6:30 AM,35.6,32.0,87,29.99,9.0,West,10.4,-,N/A,,Overcast,280,2012-12-19 12:30:00
6:53 AM,36.0,32.0,86,30.01,10.0,WNW,6.9,-,N/A,,Overcast,300,2012-12-19 12:53:00
7:53 AM,37.0,32.0,82,30.04,8.0,WNW,4.6,-,N/A,,Overcast,290,2012-12-19 13:53:00
8:53 AM,37.0,33.1,86,30.04,6.0,NW,3.5,-,N/A,,Overcast,310,2012-12-19 14:53:00
9:53 AM,37.9,34.0,86,30.06,4.0,NNW,4.6,-,N/A,,Overcast,330,2012-12-19 15:53:00
10:53 AM,39.0,35.1,86,30.07,5.0,Calm,Calm,-,N/A,,Overcast,0,2012-12-19 16:53:00
11:30 AM,39.2,35.6,87,30.04,5.0,North,4.6,-,N/A,,Haze,10,2012-12-19 17:30:00
11:53 AM,39.9,35.1,83,30.06,6.0,Calm,Calm,-,N/A,,Haze,0,2012-12-19 17:53:00
12:53 PM,41.0,35.1,79,30.06,6.0,East,4.6,-,N/A,,Haze,80,2012-12-19 18:53:00
1:53 PM,41.0,35.1,79,30.05,6.0,East,4.6,-,N/A,,Haze,90,2012-12-19 19:53:00
2:06 PM,41.0,35.6,81,30.04,6.0,East,5.8,-,N/A,,Haze,90,2012-12-19 20:06:00
2:53 PM,41.0,36.0,82,30.06,6.0,SSE,4.6,-,N/A,,Haze,150,2012-12-19 20:53:00
3:53 PM,41.0,35.1,79,30.06,6.0,SE,4.6,-,N/A,,Haze,140,2012-12-19 21:53:00
4:53 PM,39.0,35.1,86,30.06,6.0,East,4.6,-,N/A,,Mostly Cloudy,100,2012-12-19 22:53:00
5:53 PM,39.0,36.0,89,30.04,6.0,East,9.2,-,N/A,,Overcast,90,2012-12-19 23:53:00
6:53 PM,39.9,36.0,86,30.02,6.0,East,10.4,-,N/A,,Overcast,80,2012-12-20 00:53:00
7:53 PM,39.9,36.0,86,30.00,6.0,East,11.5,-,N/A,,Overcast,90,2012-12-20 01:53:00
8:53 PM,39.9,36.0,86,29.97,6.0,East,12.7,-,N/A,,Overcast,90,2012-12-20 02:53:00
9:53 PM,39.9,35.1,83,29.97,7.0,SE,10.4,-,N/A,,Overcast,130,2012-12-20 03:53:00
10:53 PM,39.9,36.0,86,29.88,6.0,East,11.5,-,0.00,,Overcast,100,2012-12-20 04:53:00
11:53 PM,39.9,37.0,89,29.81,5.0,ESE,16.1,28.8,0.01,Rain,Light Rain,110,2012-12-20 05:53:00